User: anonymous   Login
Location: Rio Negrinho
(26.2394°S, 49.4999°W)
Time: 16:22:50
(UTC+00:00)
Language:

GOES 2 Rocket - Orbit

View from above orbital plane
View from above orbital plane
View from above satellite
View from above satellite

Ground track
Ground track

The orbit data is extracted from the following two-line orbital elements,

1 10062U 77048B   20224.85547465  .00000146  00000-0  20651-4 0  9998
2 10062  28.4158  58.8114 0736279  96.3686 272.1158 13.36684691101115
Epoch (UTC): 11 August 2020 20:31:53
Eccentricity: 0.0736279
inclination: 28.4158°
perigee height: 569 km
apogee height: 1674 km
right ascension of ascending node: 58.8114°
argument of perigee: 96.3686°
revolutions per day: 13.36684691
mean anomaly at epoch: 272.1158°
orbit number at epoch: 10111

The dashed part of the orbit path shows where the satellite is in the earth's shadow,  

DLR